Dewpoint
6 6 6 6 4 4 8 8 9 9 9 9 7 4 4 5 5 2 -0 -1 -1 -1 -2 -5 -4 -4 -4 -3 -2 -3 -4 -5
6 6 6 6 6 8 7 7 8 8 8 6 5 5 6 5 0 -0 -1 -3 -4 -5 -4 -3 -3 -3 -3 -3 -5 -6 -8 -10
8 8 9 9 10 8 6 5 5 5 6 5 5 2 -2 -1 -1 -1 -3 -3 -3 -3 -3 -3 -3 -5 -7 -7 -9 -13 -16 -20
6 7 7 5 4 2 1 -0 -1 -0 -1 -1 -1 -1 -1 -1 -1 -2 -2 -2 -3 -2 -3 -4 -4 -3 -4 -5 -11 -13 -12 -13
3 3 1 -1 -1 -1 -1 -1 -0 0 0 0 1 1 1 0 -1 -1 -2 -2 -2 -3 -4 -4 -4 -4 -6 -9 -9 -9 -8 -13
1 -0 -0 -1 0 1 1 1 1 1 1 1 1 1 1 0 -1 -2 -2 -2 -4 -7 -9 -4 -5 -5 -6 -6 -6 -7 -11 -10
1 1 1 1 1 1 1 1 1 1 1 1 1 0 -0 -2 -2 -3 -2 -4 -4 -5 -5 -4 -4 -4 -6 -9 -11 -13 -13 -13
2 2 2 1 1 1 1 1 1 1 1 1 -0 -1 -4 -3 -2 -2 -1 -1 -3 -4 -4 -2 -2 -6 -7 -7 -8 -14 -14 -15
3 2 2 2 2 1 1 1 0 -1 -1 -1 -2 -4 -5 -5 -3 -3 -4 -5 -4 -3 -3 -2 -3 -4 -2 -8 -11 -15 -13 -14
2 2 2 1 1 0 -1 -2 -4 -3 -4 -5 -8 -11 -12 -12 -13 -15 -16 -18 -16 -4 -3 -2 -2 -3 -6 -6 -12 -13 -12 -13
1 0 0 0 -0 -2 -3 -5 -6 -7 -8 -8 -10 -13 -15 -16 -19 -21 -27 -33 -7 -2 -3 -3 -3 -4 -7 -12 -13 -15 -13 -12
-0 -0 -0 -1 -2 -2 -3 -7 -7 -7 -9 -11 -14 -15 -18 -20 -23 -26 -27 -15 -3 -3 -3 -3 -6 -7 -13 -13 -16 -14 -13 -12
-0 -1 -1 -3 -5 -7 -7 -7 -7 -9 -11 -13 -13 -13 -15 -18 -20 -21 -21 -12 -4 -4 -6 -4 -6 -12 -14 -15 -15 -13 -13 -12
-1 -2 -5 -6 -7 -7 -7 -7 -9 -10 -12 -12 -12 -12 -13 -14 -16 -18 -17 -9 -6 -5 -4 -5 -14 -15 -14 -15 -13 -13 -12 -12
-2 -5 -6 -7 -6 -3 -7 -9 -10 -11 -12 -11 -11 -11 -11 -13 -15 -14 -13 -6 -4 -5 -6 -12 -16 -14 -14 -14 -13 -12 -11 -11
-5 -5 -6 -4 -4 -8 -10 -10 -11 -12 -11 -11 -10 -10 -10 -14 -11 -12 -12 -7 -6 -5 -9 -13 -14 -11 -14 -12 -12 -11 -11 -12
-5 -5 -6 -8 -9 -10 -10 -11 -12 -11 -11 -10 -9 -9 -12 -12 -10 -10 -8 -5 -5 -5 -11 -11 -9 -11 -13 -11 -11 -11 -12 -14
-6 -7 -9 -9 -10 -11 -12 -12 -11 -11 -10 -10 -9 -11 -10 -11 -9 -8 -6 -5 -6 -7 -7 -8 -7 -12 -11 -11 -12 -13 -16 -20
-8 -8 -8 -9 -11 -12 -12 -12 -11 -10 -10 -9 -11 -10 -8 -10 -10 -8 -6 -6 -6 -7 -7 -11 -11 -9 -10 -12 -12 -17 -20 -18
Wind_Speed
9 14 14 14 22 22 21 16 15 13 10 8 10 9 7 1 8 8 10 13 15 19 22 20 24 26 24 21 20 21 23 25
5 5 3 5 9 11 13 15 12 6 2 11 10 2 10 14 8 13 14 17 20 19 22 25 25 22 20 20 20 22 24 27
16 13 11 9 8 9 12 13 13 10 9 4 4 9 9 9 12 15 16 18 18 20 21 22 18 18 22 24 25 24 25 27
18 17 16 15 16 17 17 16 14 10 8 7 9 8 8 11 14 16 19 19 18 19 18 17 21 30 32 31 28 27 28 26
20 18 17 15 17 14 12 11 7 5 5 7 9 11 11 13 16 18 18 17 18 20 23 29 34 33 28 23 27 28 28 27
21 18 14 14 13 10 7 5 4 5 7 9 14 15 14 15 16 18 17 20 26 29 29 29 26 23 25 23 24 25 25 21
20 15 11 8 8 6 3 1 4 7 9 10 12 12 12 12 14 17 22 24 24 30 29 28 25 18 18 20 22 22 21 19
18 15 12 8 6 3 1 0 3 4 7 10 9 10 12 14 16 19 23 25 26 26 24 25 18 15 12 14 19 22 18 16
15 13 12 9 8 7 3 2 6 9 8 8 9 11 14 18 20 23 27 28 27 25 22 23 23 24 27 14 14 17 15 16
18 15 13 11 8 3 3 8 10 8 10 11 13 18 21 21 24 29 32 32 28 24 19 20 22 22 9 12 15 15 15 15
19 16 12 8 3 4 9 11 10 10 12 15 20 24 25 27 31 33 32 29 21 19 16 25 18 19 13 10 12 14 16 17
18 13 9 4 0 4 13 7 6 11 16 20 23 24 28 28 30 33 31 21 17 20 21 25 17 16 8 11 14 15 19 20
14 9 5 3 2 4 4 4 10 14 19 21 22 26 28 30 32 31 27 18 17 17 18 25 19 10 9 12 17 18 22 24
11 7 7 6 2 1 5 9 12 15 20 20 24 26 29 31 32 31 25 15 12 19 22 20 8 7 11 15 18 21 25 26
10 9 10 5 2 13 8 11 14 17 19 20 23 25 30 33 33 29 23 17 20 18 16 12 9 11 15 19 22 24 25 25
10 9 7 8 13 8 10 14 15 17 20 20 22 26 31 32 31 29 23 18 15 16 12 11 11 15 18 20 23 25 27 31
11 10 8 12 10 11 14 14 16 19 22 23 22 28 29 29 31 26 18 13 13 13 9 11 16 20 19 20 24 27 30 34
12 11 8 10 12 13 14 15 18 22 24 21 24 28 27 30 26 21 15 11 13 14 13 16 20 15 18 24 25 29 31 29
13 10 10 12 13 13 14 17 21 24 22 22 26 24 27 29 24 18 15 13 16 17 16 13 11 19 23 24 28 27 26 26
Wind_Direction
212 227 239 231 235 242 239 236 236 214 253 219 174 168 158 206 314 293 303 307 311 309 308 314 323 324 317 310 307 306 305 304
134 170 201 221 221 227 232 246 276 297 66 145 140 32 334 311 299 315 320 320 321 312 314 316 319 313 308 307 306 305 304 307
106 108 101 103 97 75 61 57 62 76 123 115 332 324 341 324 315 307 308 316 312 311 311 310 310 315 319 318 317 320 325 325
110 101 85 75 75 74 80 86 88 86 73 47 12 0 336 306 299 302 304 299 299 301 301 305 317 323 320 319 317 319 323 326
111 101 99 97 95 89 83 85 76 43 3 341 334 322 304 298 296 296 296 299 304 311 318 317 313 313 313 312 321 326 324 323
115 115 117 115 110 109 107 93 42 0 341 332 332 328 315 307 305 303 304 322 322 323 321 316 319 313 306 307 316 321 321 319
131 133 129 140 132 123 110 23 342 338 332 324 323 322 328 339 336 328 319 323 323 327 324 314 306 300 320 329 325 322 322 325
156 156 151 155 138 149 179 193 289 317 316 319 341 349 352 342 329 318 313 321 318 318 304 291 284 281 299 315 329 332 330 336
171 161 153 162 152 142 127 341 327 321 326 340 338 328 321 318 315 314 314 314 315 313 303 282 287 294 297 336 326 318 323 331
164 155 154 148 144 126 348 331 331 343 350 341 340 337 329 323 320 317 314 313 313 306 284 265 284 300 307 317 313 318 314 321
161 155 150 146 135 3 347 335 334 342 341 334 335 334 327 325 324 322 321 318 299 273 259 286 283 302 313 311 309 317 312 314
161 156 150 150 26 342 321 313 339 338 335 337 336 337 337 334 330 330 332 326 285 264 275 314 314 308 312 313 315 313 316 316
159 158 172 197 318 305 325 338 333 333 339 340 341 340 342 339 338 337 337 333 308 294 300 308 295 278 311 313 320 316 319 317
169 186 201 200 229 292 317 319 326 331 339 341 343 340 339 339 339 338 334 323 299 301 295 294 264 287 303 313 318 318 318 317
195 197 198 212 254 294 289 310 317 328 337 337 335 335 338 338 336 335 324 297 289 295 290 273 261 293 297 307 317 316 308 304
208 207 217 285 286 260 293 306 317 324 328 327 328 332 335 334 334 331 321 306 290 288 290 267 276 308 295 306 308 306 306 306
214 215 267 274 247 278 295 307 313 315 320 323 322 326 329 332 331 328 322 319 315 292 273 285 294 298 297 305 310 309 310 308
222 231 266 268 268 287 297 300 305 312 313 311 317 323 327 332 326 324 317 302 329 274 277 296 291 288 308 312 310 312 313 314
223 245 269 266 271 282 285 292 304 304 300 309 316 320 326 330 322 315 307 295 309 309 305 289 295 313 310 313 313 317 320 321
Height
1547 1549 1549 1551 1552 1553 1554 1557 1559 1562 1564 1565 1569 1568 1569 1570 1570 1569 1567 1565 1564 1563 1561 1559 1556 1553 1551 1550 1548 1545 1541 1538
1546 1547 1548 1549 1550 1552 1555 1557 1559 1561 1563 1567 1568 1570 1570 1569 1568 1566 1564 1562 1561 1559 1557 1555 1552 1550 1546 1544 1543 1540 1538 1533
1549 1548 1549 1551 1553 1555 1556 1557 1559 1563 1565 1567 1568 1569 1568 1567 1565 1562 1561 1559 1557 1555 1553 1550 1548 1546 1543 1540 1537 1535 1532 1529
1549 1551 1552 1553 1555 1557 1558 1560 1563 1565 1566 1566 1566 1566 1566 1564 1562 1560 1558 1556 1554 1551 1549 1546 1544 1541 1538 1535 1532 1529 1527 1526
1549 1554 1556 1557 1557 1561 1562 1562 1563 1564 1565 1565 1564 1564 1562 1561 1559 1556 1554 1552 1550 1548 1546 1543 1540 1537 1533 1530 1527 1525 1523 1521
1551 1555 1558 1559 1558 1559 1562 1562 1563 1563 1563 1562 1561 1559 1558 1557 1555 1553 1551 1550 1547 1545 1542 1539 1535 1532 1529 1526 1522 1521 1519 1518
1552 1554 1558 1561 1560 1561 1561 1561 1561 1561 1560 1559 1558 1557 1556 1555 1554 1552 1549 1547 1543 1539 1536 1533 1531 1529 1526 1523 1521 1517 1516 1513
1552 1554 1552 1559 1558 1559 1560 1559 1559 1558 1557 1556 1555 1555 1554 1552 1550 1547 1543 1540 1538 1535 1532 1528 1525 1522 1520 1518 1517 1517 1514 1509
1552 1553 1551 1554 1556 1558 1558 1558 1557 1557 1555 1554 1553 1552 1551 1549 1546 1542 1538 1535 1532 1528 1525 1522 1519 1518 1516 1513 1514 1513 1512 1508
1551 1551 1551 1552 1554 1555 1556 1557 1557 1556 1555 1553 1551 1550 1547 1544 1541 1537 1532 1528 1524 1521 1519 1517 1516 1513 1512 1511 1512 1510 1508 1505
1549 1549 1549 1550 1551 1554 1555 1554 1554 1554 1553 1551 1548 1547 1544 1540 1535 1530 1526 1521 1517 1516 1515 1514 1511 1509 1509 1508 1507 1506 1504 1502
1547 1548 1549 1550 1552 1552 1554 1555 1554 1553 1551 1549 1546 1543 1540 1535 1531 1525 1520 1516 1514 1512 1511 1509 1508 1507 1506 1506 1505 1502 1500 1497
1547 1548 1549 1550 1552 1553 1552 1553 1552 1550 1548 1546 1543 1539 1535 1530 1525 1520 1514 1511 1510 1510 1508 1506 1505 1504 1503 1502 1500 1498 1495 1492
1546 1548 1549 1549 1550 1552 1552 1551 1550 1547 1545 1542 1538 1534 1530 1526 1520 1515 1511 1508 1507 1506 1504 1501 1501 1500 1499 1498 1496 1493 1489 1487
1545 1546 1547 1548 1548 1548 1548 1548 1547 1543 1540 1537 1533 1529 1525 1520 1515 1510 1507 1505 1502 1500 1498 1497 1497 1497 1496 1494 1490 1487 1485 1482
1543 1544 1545 1546 1545 1545 1545 1544 1542 1539 1536 1532 1528 1524 1520 1515 1511 1507 1502 1499 1497 1496 1494 1493 1494 1493 1492 1489 1486 1483 1479 1475
1540 1541 1542 1541 1541 1542 1542 1540 1538 1535 1531 1528 1524 1520 1516 1511 1507 1502 1498 1496 1494 1493 1491 1490 1490 1489 1487 1484 1481 1478 1474 1468
1536 1537 1538 1538 1539 1539 1537 1536 1533 1530 1527 1524 1520 1516 1511 1507 1502 1498 1495 1494 1492 1490 1488 1487 1486 1485 1483 1480 1477 1473 1467 1462
1533 1534 1535 1536 1536 1535 1533 1531 1528 1525 1522 1519 1515 1511 1507 1503 1498 1495 1493 1491 1489 1487 1485 1484 1483 1481 1478 1475 1472 1467 1462 1456